Regional Weather Roundup
Issued by NWS

Home | Current Version | Previous Version | Text Only | Print | Product List | Glossary On
Versions: 1 2 3 4 5 6 7 8 9 10 11 12 13 14 15 16 17 18 19 20 21 22 23 24 25 26 27
000
ASUS42 KTBW 251217
RWRFL
FLORIDA REGIONAL WEATHER ROUNDUP
NATIONAL WEATHER SERVICE TAMPA BAY RUSKIN FL
800 AM EDT SAT MAR 25 2017

NOTE: "FAIR" INDICATES FEW OR NO CLOUDS BELOW 12,000 FEET WITH NO
SIGNIFICANT WEATHER AND/OR OBSTRUCTIONS TO VISIBILITY.

FLZ001>010-012>015-112-114-115-251300-
PANHANDLE FLORIDA

CITY           SKY/WX    TMP DP  RH WIND       PRES   REMARKS
PENSACOLA      CLOUDY    69  64  84 SE10      30.16R
PENSACOLA NAS  CLOUDY    68  64  87 SE9       30.16R
MILTON NAS     LGT RAIN  58  56  93 E5        30.18R
CRESTVIEW      PTCLDY    52  50  93 NE3       30.20S
DUKE FIELD     FAIR      60  56  86 E7        30.17S
VALPARAISO     MOCLDY    62  58  88 E5        30.18R
MARY ESTHER    PTCLDY    67  63  88 SE12      30.17
TRI COUNTY     FAIR      59  57  93 CALM      30.23R
PANAMA CITY    FAIR      58  56  93 NE5       30.20R
TYNDALL AFB    PTCLDY    62  59  92 E5        30.22R
APALACHICOLA   PTCLDY    68  64  87 SE9       30.20R

STATION/POSITION SKY/WX   TEMP    WIND        PRES    WAVE   SWELL
                          AIR SEA DIR/SP/G            HT/PER HT/PER
                          (F)     (DEG/KT/KT) (MB)    (FT/S) (FT/S)
30.1N   87.6W              69 69  140/ 10/ 12 1020.9R   4/ 7   3/ 7
29.2N   88.2W              72 73  140/ 16/ 19 1020.4R   6/ 7   2/13
28.8N   86.0W              71 71              1020.5    6/ 6
PANAMA CITY BEAC           63 69   90/  7/ 11 1023.0R
TOWER C                    68     140/ 19/ 20 1023.0R
28.5N   84.5W              69 69  140/ 16/ 17 1021.3    4/ 5

$$
FLZ011-016>038-118-127-128-134-139-239-251300-
NORTH FLORIDA

CITY           SKY/WX    TMP DP  RH WIND       PRES   REMARKS
MARIANNA       MOCLDY    61  57  87 E3        30.22R
TALLAHASSEE    MOCLDY    58  55  90 E7        30.23R
PERRY          MOCLDY    58  55  89 CALM      30.25R
CROSS CITY     PTCLDY    50  48  93 CALM      30.24R
LAKE CITY      FAIR      55  55 100 CALM      30.25R
GAINESVILLE    PTCLDY    54  53  97 CALM      30.24R
WILLISTON      CLEAR     57  55  94 CALM      30.24R
PALATKA        FAIR      52  52 100 CALM      30.25R
MAYPORT NAS    CLOUDY    67  60  78 SE6       30.25R
JACKSONVILLE   MOCLDY    56  55  97 CALM      30.25R
JAX NAS        MOCLDY    63  60  90 NE3       30.25R
FERNANDINA BEA CLOUDY    63  61  94 CALM      30.25R
ST AUGUSTINE   PTCLDY    67  60  78 SE7       30.25R
PALM COAST     PTCLDY    64  61  88 SE7       30.22

STATION/POSITION SKY/WX   TEMP    WIND        PRES    WAVE   SWELL
                          AIR SEA DIR/SP/G            HT/PER HT/PER
                          (F)     (DEG/KT/KT) (MB)    (FT/S) (FT/S)
SHELL POINT      NOT AVBL
KEATON BEACH               58      70/  3/  3 1023.6R
CEDAR KEY                  65     100/  9/ 10 1023.1R
FERNANDINA                 63 65   80/  1/  2 1025.3R
30.7N   81.3W                 64                N/A     5/ 6   2/11
MAYPORT                    67 65  130/  4/  8 1024.7R
31.4N   80.9W              64 62  100/  6/  6 1024.9R   5/ 8   5/ 8
ST AUGUSTINE               67 66  130/  9/ 10 1024.7R

$$
FLZ040-043>046-052-053-057-058-063-144-251300-
INTERIOR CENTRAL FLORIDA

CITY           SKY/WX    TMP DP  RH WIND       PRES   REMARKS
OCALA          CLEAR     55  52  88 CALM      30.23R
THE VILLAGES     N/A     61  61 100 CALM      30.13R
LEESBURG       CLOUDY    66  60  81 SE10      30.23R
SANFORD        PTCLDY    61  58  90 SE5       30.21S
ORLANDO EXEC   CLEAR     62  60  93 E6        30.21R
ORLANDO INTL   MOCLDY    63  59  87 E7        30.22R
KISSIMMEE      MOCLDY    61  58  90 E5        30.22R
WINTER HAVEN   PTCLDY    63  57  81 E6        30.21R
LAKELAND       PTCLDY    59  57  94 E5        30.21R
OKEECHOBEE     PTCLDY   N/A N/A N/A CALM      30.21R

$$
FLZ041-047-054-059-064-141-147-251300-
EAST CENTRAL FLORIDA

CITY           SKY/WX    TMP DP  RH WIND       PRES   REMARKS
ORMOND BEACH   CLEAR     66  61  82 SE6       30.22R
DAYTONA BEACH  MOCLDY    67  61  81 E3        30.22R
DELAND         PTCLDY    61  59  94 E3        30.21S
NEW SMYRNA BEA PTCLDY    68  61  77 SE12      30.23
JFK SPACE CTR  CLEAR     68  60  74 SE9       30.21R
TITUSVILLE     MOCLDY    66  63  88 E12       30.22S
CAPE CANAVERAL CLEAR     69  60  72 E12       30.21R
PATRICK AFB    PTCLDY    70  61  73 SE12      30.20S
MELBOURNE      MOCLDY    71  62  73 SE6       30.21R
VERO BEACH     CLEAR     69  59  70 E10       30.21R
FT PIERCE      CLEAR     68  59  73 E10       30.21R
STUART         PTCLDY    72  59  64 SE14      30.21S

STATION/POSITION SKY/WX   TEMP    WIND        PRES    WAVE   SWELL
                          AIR SEA DIR/SP/G            HT/PER HT/PER
                          (F)     (DEG/KT/KT) (MB)    (FT/S) (FT/S)
TRIDENT PIER               70 70   90/  8/ 14 1024.3R
28.4N   80.5W                 70                N/A     5/ 8   2/11
27.5N   80.2W                 70                N/A     6/ 8   2/11

$$
FLZ050-056-061-142-242-148-248-149-249-151-251-155-255-
160-260-251300-
WEST CENTRAL FLORIDA

CITY           SKY/WX    TMP DP  RH WIND       PRES   REMARKS
CRYSTAL RIVER  FAIR      54  54 100 CALM      30.22R
INVERNESS      FAIR      54  54 100 CALM      30.24R
BROOKSVILLE    PTCLDY    56  55  97 E3        30.22R
CLEARWATER AIR FAIR      64  59  82 SE7       30.20R
ST PETE CLEARW MOCLDY    65  60  84 E8        30.20R
TAMPA INTL     MOCLDY    66  58  75 CALM      30.21R
TAMPA EXEC     PTCLDY    57  54  88 CALM      30.21R
PLANT CITY     PTCLDY    63  61  94 E5        30.22R
MACDILL AFB    CLOUDY    62  61  96 E8        30.19R
PETER O KNIGHT MOCLDY    64  61  88 E6        30.21R
ST PETERSBURG  CLOUDY    65  60  84 E12       30.18R
SARASOTA       CLOUDY    61  57  87 E7        30.17R
VENICE           N/A     61  59  94 E8        30.18R

STATION/POSITION SKY/WX   TEMP    WIND        PRES    WAVE   SWELL
                          AIR SEA DIR/SP/G            HT/PER HT/PER
                          (F)     (DEG/KT/KT) (MB)    (FT/S) (FT/S)
27.3N   84.2W                 71                N/A     5/ 5
CLEARWATER BEACH NOT AVBL
MIDDLE TAMPA BAY           64     120/ 11/ 13 1022.4R
VENICE                     61 69   80/  7/  9 1021.7R

$$
FLZ066-069-070-075>078-162-262-165-265-251300-
SOUTHWEST FLORIDA AND KEYS

CITY           SKY/WX    TMP DP  RH WIND       PRES   REMARKS
PUNTA GORDA    CLOUDY    58  57  97 E5        30.20R
FT MYERS       PTCLDY    67  61  81 E9        30.16S
SOUTHWEST INTL PTCLDY    64  59  83 E9        30.17R
NAPLES         PTCLDY    65  62  90 E13       30.16R
IMMOKALEE      FAIR      63  59  88 E7        30.17R
MARATHON       CLEAR     75  64  68 E8G18     30.14R
KEY WEST NAS   MOCLDY    73  64  73 E15G25    30.13R
KEY WEST INTL  PTCLDY    73  65  75 E14G21    30.13R

STATION/POSITION SKY/WX   TEMP    WIND        PRES    WAVE   SWELL
                          AIR SEA DIR/SP/G            HT/PER HT/PER
                          (F)     (DEG/KT/KT) (MB)    (FT/S) (FT/S)
NAPLES                        70              1021.2R
26.0N   85.6W              73 74  100/ 17/ 21 1019.7R   7/ 8
DRY TORTUGAS               73      90/ 21/ 23 1019.6R
SAND KEY                   75     110/ 22/ 25 1020.4R
LONG KEY                   73 73  100/ 15/ 18 1020.5R
MOLASSES REEF              74 76  110/ 21/ 23 1021.1R

$$
FLZ067-068-071>074-168-172>174-251300-
SOUTHEAST FLORIDA

CITY           SKY/WX    TMP DP  RH WIND       PRES   REMARKS
W PALM BEACH   MOCLDY    71  56  58 E15       30.20S
BOCA RATON     PTCLDY    72  59  64 E17       30.20R
FT LAUDER-EXEC PTCLDY    73  56  54 E15       30.18R
FT LAUDERDALE  CLOUDY    73  58  59 E14       30.17R
POMPANO BEACH  CLOUDY    73  58  59 E15G25    30.19R
PEMBROKE PINES LGT RAIN  69  62  78 E8        30.19R
OPA LOCKA      LGT RAIN N/A N/A N/A NE9       30.18R
MIAMI          PTCLDY    71  60  68 E10       30.17R
WEST KENDALL   CLEAR     70  60  70 E8        30.17R
HOMESTEAD      CLEAR     71  63  74 E12       30.16R

STATION/POSITION SKY/WX   TEMP    WIND        PRES    WAVE   SWELL
                          AIR SEA DIR/SP/G            HT/PER HT/PER
                          (F)     (DEG/KT/KT) (MB)    (FT/S) (FT/S)
PORT EVERGLADES            73      70/ 13/ 19 1021.8R
VIRGINIA KEY               73      90/ 13/ 16 1022.2R
LAKE WORTH                         90/ 16/ 20   N/A
FOWEY ROCKS                73 75   80/ 19/ 21 1022.3R
SETTLEMENT POINT           70      90/ 16/ 18 1023.6R

$$





USA.gov is the U.S. government's official web portal to all federal, state and local government web resources and services.